Simultaneous Nadir Overpasses (SNOs) Predictions

Prediction of SNOs between METOP-A and TERRA Satellite Orbit:

Table of predicted SNOs for the next 14.0 days since TLE Epoch: 9/27/2013
Index Date (METOP-A) Time (METOP-A) Lat,Lon (METOP-A) SZA (METOP-A ) Date (TERRA) Time (TERRA) Lat,Lon (TERRA) SZA (TERRA ) Distance(km) Time Diff (sec)
1 09/27/2013 16:46:13 -81.30, 155.31 93.84 09/27/2013 16:46:31 -81.30, 155.34 93.83 0.67 18
2 09/27/2013 17:36:53 81.31, -36.86 86.24 09/27/2013 17:35:57 81.31, -36.89 86.21 0.69 56
3 09/30/2013 12:20:35 -81.31,-138.07 92.70 09/30/2013 12:20:43 -81.30,-138.26 92.73 3.20 8
4 09/30/2013 13:11:16 81.31, 29.34 87.33 09/30/2013 13:10:09 81.30, 29.48 87.31 2.32 67
5 10/03/2013 07:04:19 81.30, 120.60 88.35 10/03/2013 07:05:29 81.29, 120.47 88.36 2.35 70
6 10/
